| time (UTC) | temp F | wind direction | speed MPH | gust MPH | rain 1hr in | rain 24hr in | rain mn in | humidity % | barometer mb |
| 20260831053015 | 69 | 135 | 5.0 | 9.0 | 0.00 | 0.17 | 0.00 | 93 | 1012.8 |
| 20260831052015 | 69 | 135 | 4.0 | 6.0 | 0.00 | 0.17 | 0.00 | 93 | 1012.9 |
| 20260831051015 | 69 | 135 | 4.0 | 9.0 | 0.00 | 0.17 | 0.00 | 93 | 1013.0 |
| 20260831050015 | 69 | 135 | 4.0 | 8.0 | 0.00 | 0.17 | 0.17 | 93 | 1013.0 |
| 20260831045016 | 69 | 135 | 4.0 | 7.0 | 0.00 | 0.17 | 0.17 | 93 | 1013.1 |
| 20260831044016 | 69 | 135 | 6.0 | 10.0 | 0.00 | 0.17 | 0.17 | 94 | 1013.1 |
| 20260831043016 | 69 | 135 | 5.0 | 9.0 | 0.00 | 0.17 | 0.17 | 95 | 1013.2 |
| 20260831042016 | 69 | 135 | 6.0 | 9.0 | 0.00 | 0.17 | 0.17 | 96 | 1013.2 |
| 20260831041016 | 68 | 135 | 4.0 | 7.0 | 0.00 | 0.17 | 0.17 | 96 | 1013.3 |
| 20260831040016 | 68 | 113 | 4.0 | 8.0 | 0.00 | 0.17 | 0.17 | 96 | 1013.5 |
| 20260831035156 | 68 | 113 | 4.0 | 8.0 | 0.00 | 0.17 | 0.17 | 96 | 1013.7 |
| 20260831034016 | 68 | 113 | 3.0 | 6.0 | 0.00 | 0.17 | 0.17 | 96 | 1013.7 |
| 20260831033016 | 68 | 113 | 5.0 | 7.0 | 0.00 | 0.17 | 0.17 | 96 | 1013.8 |
| 20260831032016 | 68 | 113 | 3.0 | 7.0 | 0.00 | 0.17 | 0.17 | 96 | 1014.1 |
| 20260831031016 | 69 | 113 | 3.0 | 6.0 | 0.00 | 0.17 | 0.17 | 95 | 1014.1 |
| 20260831030016 | 69 | 90 | 1.0 | 3.0 | 0.00 | 0.17 | 0.17 | 95 | 1014.4 |
| 20260831025016 | 69 | 0.0 | 0.0 | 0.00 | 0.17 | 0.17 | 95 | 1014.4 | |
| 20260831024017 | 69 | 0.0 | 0.0 | 0.00 | 0.17 | 0.17 | 95 | 1014.3 | |
| 20260831023016 | 69 | 0.0 | 0.0 | 0.00 | 0.17 | 0.17 | 94 | 1014.4 | |
| 20260831022016 | 69 | 0.0 | 0.0 | 0.00 | 0.17 | 0.17 | 94 | 1014.4 | |
| 20260831021016 | 70 | 0.0 | 0.0 | 0.00 | 0.17 | 0.17 | 94 | 1014.2 | |
| 20260831020017 | 70 | 0.0 | 2.0 | 0.00 | 0.17 | 0.17 | 94 | 1014.0 | |
| 20260831015016 | 70 | 225 | 1.0 | 3.0 | 0.00 | 0.17 | 0.17 | 94 | 1013.8 |
| 20260831014016 | 70 | 270 | 2.0 | 4.0 | 0.00 | 0.17 | 0.17 | 94 | 1013.7 |
| 20260831013016 | 70 | 270 | 1.0 | 3.0 | 0.00 | 0.17 | 0.17 | 94 | 1013.4 |
| 20260831012016 | 70 | 270 | 2.0 | 6.0 | 0.00 | 0.17 | 0.17 | 94 | 1013.3 |
| 20260831011036 | 70 | 248 | 3.0 | 7.0 | 0.00 | 0.17 | 0.17 | 94 | 1013.2 |
| 20260831010016 | 70 | 248 | 2.0 | 5.0 | 0.16 | 0.17 | 0.17 | 94 | 1012.6 |
| 20260831005036 | 70 | 248 | 5.0 | 9.0 | 0.17 | 0.17 | 0.17 | 94 | 1012.4 |
| 20260831004015 | 71 | 225 | 5.0 | 10.0 | 0.17 | 0.17 | 0.17 | 94 | 1012.2 |
| 20260831003016 | 71 | 180 | 2.0 | 5.0 | 0.17 | 0.17 | 0.17 | 94 | 1011.8 |
| 20260831002036 | 71 | 45 | 1.0 | 4.0 | 0.17 | 0.17 | 0.17 | 93 | 1011.4 |
| 20260831001016 | 72 | 338 | 3.0 | 9.0 | 0.17 | 0.17 | 0.17 | 92 | 1011.8 |
| 20260831000016 | 73 | 135 | 6.0 | 11.0 | 0.01 | 0.01 | 0.00 | 90 | 1011.5 |
| 20260830235015 | 73 | 135 | 6.0 | 11.0 | 0.00 | 0.00 | 0.00 | 90 | 1011.5 |
| 20260830234016 | 73 | 135 | 2.0 | 7.0 | 0.00 | 0.00 | 0.00 | 89 | 1012.4 |
| 20260830233016 | 74 | 158 | 1.0 | 5.0 | 0.00 | 0.00 | 0.00 | 88 | 1012.4 |
| 20260830232015 | 74 | 135 | 3.0 | 6.0 | 0.00 | 0.00 | 0.00 | 87 | 1012.2 |
| 20260830231035 | 74 | 135 | 3.0 | 8.0 | 0.00 | 0.00 | 0.00 | 87 | 1012.1 |
| 20260830230035 | 75 | 135 | 3.0 | 5.0 | 0.00 | 0.00 | 0.00 | 87 | 1012.1 |
| 20260830225015 | 75 | 135 | 2.0 | 5.0 | 0.00 | 0.00 | 0.00 | 86 | 1012.3 |
| 20260830224017 | 75 | 158 | 3.0 | 7.0 | 0.00 | 0.00 | 0.00 | 85 | 1012.4 |
| 20260830223036 | 76 | 180 | 3.0 | 9.0 | 0.00 | 0.00 | 0.00 | 84 | 1012.5 |
| 20260830222015 | 76 | 158 | 3.0 | 8.0 | 0.00 | 0.00 | 0.00 | 84 | 1012.2 |
| 20260830221015 | 77 | 158 | 3.0 | 8.0 | 0.00 | 0.00 | 0.00 | 83 | 1012.3 |
| 20260830220016 | 78 | 180 | 4.0 | 9.0 | 0.00 | 0.00 | 0.00 | 82 | 1012.1 |
| 20260830215015 | 78 | 180 | 2.0 | 5.0 | 0.00 | 0.00 | 0.00 | 81 | 1012.0 |
| 20260830214017 | 79 | 180 | 3.0 | 8.0 | 0.00 | 0.00 | 0.00 | 79 | 1012.0 |
| 20260830213015 | 80 | 225 | 1.0 | 8.0 | 0.00 | 0.00 | 0.00 | 79 | 1012.0 |
| 20260830212016 | 79 | 203 | 2.0 | 6.0 | 0.00 | 0.00 | 0.00 | 78 | 1012.2 |
| 20260830211035 | 80 | 203 | 3.0 | 7.0 | 0.00 | 0.00 | 0.00 | 77 | 1012.4 |
| 20260830210015 | 80 | 180 | 3.0 | 8.0 | 0.00 | 0.00 | 0.00 | 78 | 1012.7 |
| 20260830205015 | 79 | 158 | 2.0 | 6.0 | 0.00 | 0.00 | 0.00 | 79 | 1012.7 |
| 20260830204035 | 79 | 248 | 1.0 | 5.0 | 0.00 | 0.00 | 0.00 | 81 | 1012.6 |
| 20260830203037 | 79 | 225 | 3.0 | 8.0 | 0.00 | 0.00 | 0.00 | 78 | 1012.6 |
| 20260830202015 | 79 | 225 | 3.0 | 8.0 | 0.00 | 0.00 | 0.00 | 78 | 1013.0 |
| 20260830201015 | 80 | 248 | 2.0 | 6.0 | 0.00 | 0.00 | 0.00 | 80 | 1012.9 |
| 20260830200035 | 78 | 248 | 3.0 | 8.0 | 0.00 | 0.00 | 0.00 | 81 | 1012.7 |
| 20260830195015 | 77 | 225 | 3.0 | 7.0 | 0.00 | 0.00 | 0.00 | 82 | 1012.5 |
| 20260830194015 | 77 | 225 | 4.0 | 11.0 | 0.00 | 0.00 | 0.00 | 80 | 1012.7 |
| 20260830193035 | 77 | 180 | 2.0 | 8.0 | 0.00 | 0.00 | 0.00 | 80 | 1012.5 |
| 20260830192017 | 77 | 158 | 3.0 | 10.0 | 0.00 | 0.00 | 0.00 | 80 | 1012.3 |
| 20260830191039 | 77 | 180 | 2.0 | 6.0 | 0.00 | 0.00 | 0.00 | 81 | 1012.2 |
| 20260830190017 | 77 | 158 | 3.0 | 7.0 | 0.00 | 0.00 | 0.00 | 81 | 1012.3 |
| 20260830185017 | 76 | 180 | 2.0 | 7.0 | 0.00 | 0.00 | 0.00 | 83 | 1012.6 |
| 20260830184039 | 76 | 158 | 3.0 | 8.0 | 0.00 | 0.00 | 0.00 | 81 | 1012.7 |
| 20260830183037 | 76 | 135 | 1.0 | 6.0 | 0.00 | 0.00 | 0.00 | 82 | 1012.8 |
| 20260830182017 | 76 | 158 | 3.0 | 7.0 | 0.00 | 0.00 | 0.00 | 81 | 1012.9 |
| 20260830181017 | 76 | 180 | 1.0 | 6.0 | 0.00 | 0.00 | 0.00 | 81 | 1012.9 |
| 20260830180017 | 76 | 158 | 3.0 | 6.0 | 0.00 | 0.02 | 0.00 | 81 | 1013.2 |
| 20260830175017 | 76 | 180 | 3.0 | 10.0 | 0.00 | 0.05 | 0.00 | 80 | 1013.2 |
| 20260830174019 | 75 | 225 | 2.0 | 6.0 | 0.00 | 0.05 | 0.00 | 82 | 1013.4 |
| 20260830173017 | 75 | 225 | 2.0 | 7.0 | 0.00 | 0.05 | 0.00 | 81 | 1013.6 |
| 20260830172017 | 75 | 225 | 5.0 | 11.0 | 0.00 | 0.05 | 0.00 | 80 | 1013.8 |
| 20260830171038 | 76 | 225 | 2.0 | 10.0 | 0.00 | 0.06 | 0.00 | 80 | 1013.7 |
| 20260830170017 | 76 | 225 | 3.0 | 8.0 | 0.00 | 0.06 | 0.00 | 78 | 1013.4 |
| 20260830165017 | 77 | 180 | 3.0 | 9.0 | 0.00 | 0.06 | 0.00 | 77 | 1013.1 |
| 20260830164017 | 78 | 225 | 2.0 | 7.0 | 0.00 | 0.06 | 0.00 | 78 | 1013.1 |
| 20260830163017 | 78 | 203 | 1.0 | 5.0 | 0.00 | 0.06 | 0.00 | 78 | 1012.4 |
| 20260830162017 | 78 | 180 | 2.0 | 6.0 | 0.00 | 0.06 | 0.00 | 76 | 1012.2 |
| 20260830161017 | 78 | 180 | 2.0 | 8.0 | 0.00 | 0.06 | 0.00 | 74 | 1012.3 |
| 20260830160017 | 78 | 203 | 2.0 | 8.0 | 0.00 | 0.06 | 0.00 | 74 | 1012.3 |
| 20260830155017 | 78 | 225 | 2.0 | 11.0 | 0.00 | 0.06 | 0.00 | 75 | 1012.3 |
| 20260830154017 | 79 | 180 | 4.0 | 11.0 | 0.00 | 0.06 | 0.00 | 75 | 1012.1 |
| 20260830153017 | 78 | 203 | 3.0 | 8.0 | 0.00 | 0.06 | 0.00 | 74 | 1012.2 |
| 20260830152018 | 78 | 180 | 4.0 | 9.0 | 0.00 | 0.06 | 0.00 | 75 | 1012.3 |
| 20260830151017 | 77 | 180 | 3.0 | 6.0 | 0.00 | 0.06 | 0.00 | 76 | 1012.3 |
| 20260830150017 | 77 | 203 | 3.0 | 10.0 | 0.00 | 0.06 | 0.00 | 77 | 1012.4 |
| 20260830145017 | 76 | 180 | 4.0 | 7.0 | 0.00 | 0.06 | 0.00 | 77 | 1012.3 |
| 20260830144017 | 76 | 203 | 4.0 | 11.0 | 0.00 | 0.06 | 0.00 | 78 | 1012.0 |
| 20260830143037 | 76 | 180 | 5.0 | 9.0 | 0.00 | 0.06 | 0.00 | 79 | 1012.1 |
| 20260830142017 | 75 | 180 | 4.0 | 11.0 | 0.00 | 0.06 | 0.00 | 80 | 1012.1 |
| 20260830141016 | 74 | 180 | 4.0 | 9.0 | 0.00 | 0.06 | 0.00 | 80 | 1012.2 |
| 20260830140017 | 74 | 158 | 2.0 | 6.0 | 0.00 | 0.07 | 0.00 | 82 | 1012.1 |
| 20260830135017 | 73 | 158 | 2.0 | 4.0 | 0.00 | 0.08 | 0.00 | 83 | 1011.9 |
| 20260830134017 | 72 | 158 | 4.0 | 8.0 | 0.00 | 0.09 | 0.00 | 83 | 1011.7 |
| 20260830133017 | 72 | 158 | 1.0 | 4.0 | 0.00 | 0.09 | 0.00 | 85 | 1012.0 |
| 20260830132019 | 71 | 158 | 4.0 | 7.0 | 0.00 | 0.10 | 0.00 | 85 | 1011.9 |
| 20260830131016 | 70 | 158 | 3.0 | 5.0 | 0.00 | 0.11 | 0.00 | 86 | 1011.9 |
| 20260830130017 | 70 | 158 | 5.0 | 9.0 | 0.00 | 0.12 | 0.00 | 86 | 1011.9 |
| 20260830125037 | 69 | 158 | 5.0 | 9.0 | 0.00 | 0.13 | 0.00 | 87 | 1011.8 |
| 20260830124017 | 69 | 158 | 3.0 | 6.0 | 0.00 | 0.13 | 0.00 | 90 | 1012.0 |
| 20260830123017 | 68 | 158 | 3.0 | 5.0 | 0.00 | 0.14 | 0.00 | 90 | 1012.0 |
| 20260830122036 | 68 | 158 | 2.0 | 5.0 | 0.00 | 0.15 | 0.00 | 90 | 1012.0 |
| 20260830121036 | 67 | 158 | 2.0 | 6.0 | 0.00 | 0.15 | 0.00 | 91 | 1012.0 |
| 20260830120037 | 67 | 158 | 2.0 | 5.0 | 0.00 | 0.15 | 0.00 | 92 | 1012.1 |
| 20260830115018 | 66 | 135 | 3.0 | 5.0 | 0.00 | 0.15 | 0.00 | 93 | 1011.7 |
| 20260830114018 | 66 | 180 | 3.0 | 6.0 | 0.00 | 0.15 | 0.00 | 93 | 1012.0 |
| 20260830113016 | 66 | 158 | 2.0 | 5.0 | 0.00 | 0.15 | 0.00 | 93 | 1012.0 |
| 20260830112017 | 66 | 158 | 2.0 | 5.0 | 0.00 | 0.15 | 0.00 | 94 | 1011.9 |
| 20260830111037 | 66 | 158 | 3.0 | 5.0 | 0.00 | 0.15 | 0.00 | 94 | 1011.8 |
| 20260830110016 | 66 | 180 | 2.0 | 4.0 | 0.00 | 0.15 | 0.00 | 95 | 1012.0 |
| 20260830105016 | 66 | 158 | 3.0 | 7.0 | 0.00 | 0.15 | 0.00 | 95 | 1011.9 |
| 20260830104016 | 65 | 158 | 3.0 | 6.0 | 0.00 | 0.15 | 0.00 | 95 | 1011.8 |
| 20260830103016 | 65 | 158 | 3.0 | 5.0 | 0.00 | 0.15 | 0.00 | 95 | 1012.0 |
| 20260830102016 | 66 | 158 | 4.0 | 6.0 | 0.00 | 0.15 | 0.00 | 95 | 1012.0 |
| 20260830101016 | 66 | 158 | 3.0 | 6.0 | 0.00 | 0.15 | 0.00 | 95 | 1012.1 |
| 20260830100016 | 66 | 135 | 3.0 | 5.0 | 0.00 | 0.15 | 0.00 | 94 | 1012.2 |
| 20260830095016 | 66 | 135 | 4.0 | 5.0 | 0.00 | 0.15 | 0.00 | 94 | 1012.1 |
| 20260830094036 | 66 | 135 | 4.0 | 5.0 | 0.00 | 0.15 | 0.00 | 94 | 1012.2 |
| 20260830093016 | 66 | 135 | 3.0 | 4.0 | 0.00 | 0.15 | 0.00 | 94 | 1012.4 |
| 20260830092016 | 66 | 135 | 1.0 | 3.0 | 0.00 | 0.15 | 0.00 | 94 | 1012.4 |
| 20260830091017 | 67 | 0.0 | 3.0 | 0.00 | 0.15 | 0.00 | 93 | 1012.5 | |
| 20260830090036 | 67 | 113 | 1.0 | 3.0 | 0.00 | 0.15 | 0.00 | 93 | 1012.6 |
| 20260830085016 | 67 | 0.0 | 0.0 | 0.00 | 0.15 | 0.00 | 93 | 1012.6 | |
| 20260830084018 | 67 | 0.0 | 0.0 | 0.00 | 0.15 | 0.00 | 93 | 1012.6 | |
| 20260830083016 | 67 | 135 | 2.0 | 3.0 | 0.00 | 0.15 | 0.00 | 93 | 1012.5 |
| 20260830082016 | 67 | 135 | 1.0 | 3.0 | 0.00 | 0.15 | 0.00 | 93 | 1012.4 |
| 20260830081036 | 67 | 135 | 1.0 | 2.0 | 0.00 | 0.15 | 0.00 | 93 | 1012.5 |
| 20260830080016 | 67 | 135 | 1.0 | 2.0 | 0.00 | 0.15 | 0.00 | 93 | 1012.4 |
| 20260830075036 | 67 | 135 | 2.0 | 3.0 | 0.00 | 0.15 | 0.00 | 93 | 1012.3 |
| 20260830074036 | 68 | 135 | 2.0 | 4.0 | 0.00 | 0.15 | 0.00 | 92 | 1012.3 |
| 20260830073016 | 68 | 135 | 2.0 | 4.0 | 0.00 | 0.15 | 0.00 | 92 | 1012.4 |
| 20260830072016 | 68 | 135 | 2.0 | 3.0 | 0.00 | 0.15 | 0.00 | 91 | 1012.6 |
| 20260830071016 | 68 | 135 | 3.0 | 4.0 | 0.00 | 0.15 | 0.00 | 91 | 1012.7 |
| 20260830070016 | 69 | 135 | 2.0 | 4.0 | 0.00 | 0.15 | 0.00 | 91 | 1012.9 |
| 20260830065018 | 69 | 135 | 2.0 | 4.0 | 0.00 | 0.15 | 0.00 | 91 | 1013.0 |
| 20260830064016 | 69 | 135 | 2.0 | 4.0 | 0.00 | 0.15 | 0.00 | 91 | 1013.1 |
| 20260830063016 | 69 | 135 | 1.0 | 3.0 | 0.00 | 0.15 | 0.00 | 91 | 1013.2 |
| 20260830062016 | 68 | 135 | 1.0 | 3.0 | 0.00 | 0.15 | 0.00 | 91 | 1013.2 |
| 20260830061016 | 68 | 135 | 2.0 | 3.0 | 0.00 | 0.15 | 0.00 | 91 | 1013.3 |
| 20260830060016 | 68 | 113 | 1.0 | 3.0 | 0.00 | 0.15 | 0.00 | 91 | 1013.4 |
| 20260830055016 | 68 | 135 | 2.0 | 4.0 | 0.00 | 0.15 | 0.00 | 91 | 1013.3 |
| 20260830054018 | 68 | 135 | 2.0 | 3.0 | 0.00 | 0.15 | 0.00 | 91 | 1013.4 |